Location: Newark
(34.1333°N, 7.9667°W)
Time: 01:33:49
(UTC+00:00)

AO-85 - Pass Details

Date: 12 June 2023
Orbit: 516 x 753 km, 64.8° (Epoch: 04 January)

Event Time Altitude Azimuth Distance (km) Brightness Sun altitude
Rises 20:05:02 0° 352° (N) 2,686 ? -4.6°
Reaches altitude 10° 20:08:13 10° 20° (NNE) 1,826 ? -5.2°
Maximum altitude 20:10:18 14° 51° (NE) 1,632 ? -5.5°
Drops below altitude 10° 20:12:26 10° 81° (E) 1,881 ? -5.9°
Enters shadow 20:14:10 - 98° (E) 2,319 ? -6.2°
